Regional Weather Roundup
Issued by NWS

Home | Current Version | Previous Version | Text Only | Print | Product List | Glossary On
Versions: 1 2 3 4 5 6 7 8 9 10 11 12 13 14 15 16 17 18 19 20 21 22 23 24 25 26 27 28 29 30 31 32 33 34 35 36 37 38 39 40 41 42 43 44 45 46 47 48 49 50
629
ASUS45 KBOI 031210
RWRID

IDAHO REGIONAL WEATHER ROUNDUP
NATIONAL WEATHER SERVICE BOISE ID
500 AM MST SAT DEC 03 2016

NOTE: "FAIR" INDICATES FEW OR NO CLOUDS BELOW 12000 FEET
WITH NO SIGNIFICANT WEATHER AND/OR OBSTRUCTIONS TO VISIBILITY

IDZ012-014-031300-
SOUTHWEST IDAHO


CITY           SKY/WX    TMP DP  RH WIND       PRES   REMARKS
BOISE          CLOUDY    35  24  64 S5        30.23F WCI  31
CALDWELL       CLOUDY    33  26  75 NE5       30.26  WCI  29
MOUNTAIN HOME  CLOUDY    31  25  80 E5        30.23S WCI  26
$$

IDZ016-017-031300-
SOUTHCENTRAL IDAHO


CITY           SKY/WX    TMP DP  RH WIND       PRES   REMARKS
BURLEY         CLOUDY    30  19  63 SW12      30.19F WCI  20
JEROME         CLOUDY    30  21  69 S5        30.20S WCI  25
TWIN FALLS     CLOUDY    31  18  58 S8        30.20F WCI  23
$$

IDZ019>023-031300-
SOUTHEAST IDAHO


CITY           SKY/WX    TMP DP  RH WIND       PRES   REMARKS
IDAHO FALLS    CLOUDY    25  17  72 S6        30.17S WCI  18
POCATELLO      CLOUDY    28  19  69 S8        30.18F WCI  20
REXBURG        CLOUDY    24  19  81 SW7       30.16S WCI  16
$$

IDZ006-010-011-018-031-032-031300-
CENTRAL IDAHO MOUNTAINS


CITY           SKY/WX    TMP DP  RH WIND       PRES   REMARKS
MCCALL         CLOUDY    25  20  81 CALM      30.15
HAILEY         CLOUDY    19  18  93 NW5       30.16R WCI  13
STANLEY          N/A     23  19  85 W5        30.11S WCI  17
SALMON         CLOUDY    27  25  93 CALM      30.11S
CHALLIS        CLOUDY    27  20  75 CALM      30.09
$$

IDZ002-004-006-007-026-031300-
NORTHERN IDAHO


CITY           SKY/WX    TMP DP  RH WIND       PRES   REMARKS
LEWISTON       CLOUDY    43  32  65 S10       30.11F
LOWELL           N/A     34  32  92 N3        30.19S
COEUR D`ALENE  CLOUDY    35  34  96 CALM      30.05R
MULLAN PASS    CLOUDY    25  23  92 VRB5      29.92S FOG     WCI  19
$$




USA.gov is the U.S. government's official web portal to all federal, state and local government web resources and services.